Date String (YYYY-MM-DD hh:mm:ss) UTC,Instrument flags,Ambient pressure (hPa),Sample flow (lpm),Bypass flow (lpm),Sample temperature (°C),Ambient temperature (°C),ASC tube jacket temperature (°C),LED temperature (°C),Box temperature (°C),Sample RH (%),Span deviation,Mass concentration (μg/m³),Mass concentration (μg/m³),Mass concentration (μg/m³)
DateTimeUTC,F1_M11,P_M11,Q1_M11,Q2_M11,T1_M11,T2_M11,T3_M11,T4_M11,T5_M11,U1_M11,ZSPAN_M11,X0_M11,X2_M11,X1_M11
2021-12-09 04:00:00,,0811.4,4.99,0.00,22.3,21.5,00.0,31.5,24.1,14.2,0000.0,0000.94,0000.29,0000.16
2021-12-09 04:01:00,,0811.6,5.02,0.00,22.3,21.5,00.0,31.5,24.1,13.8,0000.0,0000.98,0000.29,0000.16
2021-12-09 04:02:00,,0811.9,4.98,0.00,22.3,21.5,00.0,31.5,24.1,13.6,0000.0,0001.16,0000.32,0000.16
2021-12-09 04:03:00,,0811.7,5.01,0.00,22.4,21.5,00.0,31.5,24.1,14.1,0000.0,0002.47,0000.33,0000.16
2021-12-09 04:04:00,,0811.6,5.01,0.00,22.3,21.5,00.0,31.4,24.0,14.2,0000.0,0002.60,0000.30,0000.15
2021-12-09 04:05:00,,0811.6,4.99,0.00,22.3,21.4,00.0,31.4,24.0,13.6,0000.0,0003.10,0000.29,0000.15
2021-12-09 04:06:00,,0811.8,4.99,0.00,22.3,21.5,00.0,31.4,24.0,14.1,0000.0,0003.09,0000.29,0000.15
2021-12-09 04:07:00,,0812.0,5.00,0.00,22.3,21.5,00.0,31.4,24.0,14.4,0000.0,0003.11,0000.29,0000.15
2021-12-09 04:08:00,,0812.1,5.01,0.00,22.3,21.5,00.0,31.4,24.1,14.4,0000.0,0003.15,0000.31,0000.15
2021-12-09 04:09:00,,0811.9,5.00,0.00,22.3,21.5,00.0,31.4,24.0,14.2,0000.0,0003.07,0000.30,0000.14
2021-12-09 04:10:00,,0812.0,5.00,0.00,22.3,21.5,00.0,31.4,24.1,14.2,0000.0,0002.86,0000.30,0000.14
2021-12-09 04:11:00,,0812.0,5.00,0.00,22.3,21.5,00.0,31.4,24.0,14.4,0000.0,0002.73,0000.29,0000.14
2021-12-09 04:12:00,,0811.8,4.99,0.00,22.3,21.6,00.0,31.4,24.0,14.5,0000.0,0002.67,0000.27,0000.14
2021-12-09 04:13:00,,0811.8,5.00,0.00,22.3,21.6,00.0,31.4,24.0,14.6,0000.0,0002.65,0000.25,0000.14
2021-12-09 04:14:00,,0811.8,5.00,0.00,22.3,21.6,00.0,31.4,24.0,14.8,0000.0,0001.25,0000.22,0000.14
2021-12-09 04:15:00,,0811.7,5.00,0.00,22.3,21.6,00.0,31.4,24.0,15.0,0000.0,0000.98,0000.22,0000.14
2021-12-09 04:16:00,,0811.8,5.01,0.00,22.3,21.6,00.0,31.4,24.0,15.1,0000.0,0000.47,0000.21,0000.13
2021-12-09 04:17:00,,0811.7,4.99,0.00,22.3,21.6,00.0,31.4,24.0,15.1,0000.0,0000.52,0000.23,0000.13
2021-12-09 04:18:00,,0811.8,4.99,0.00,22.3,21.5,00.0,31.4,23.9,15.4,0000.0,0000.54,0000.23,0000.13
2021-12-09 04:19:00,,0811.8,5.01,0.00,22.3,21.5,00.0,31.4,23.9,15.5,0000.0,0000.50,0000.22,0000.13
2021-12-09 04:20:00,,0811.9,5.00,0.00,22.3,21.5,00.0,31.4,24.0,15.6,0000.0,0000.50,0000.22,0000.13
2021-12-09 04:21:00,,0812.1,5.01,0.00,22.3,21.5,00.0,31.4,24.0,15.7,0000.0,0000.56,0000.25,0000.14
2021-12-09 04:22:00,,0812.2,4.99,0.00,22.3,21.5,00.0,31.4,23.9,15.8,0000.0,0000.56,0000.25,0000.14
2021-12-09 04:23:00,,0812.2,4.99,0.00,22.3,21.5,00.0,31.3,23.9,15.8,0000.0,0000.56,0000.25,0000.15
2021-12-09 04:24:00,,0812.3,4.98,0.00,22.2,21.4,00.0,31.3,23.9,15.5,0000.0,0000.55,0000.27,0000.15
2021-12-09 04:25:00,,0812.3,4.99,0.00,22.3,21.5,00.0,31.3,24.0,15.6,0000.0,0000.65,0000.29,0000.15
2021-12-09 04:26:00,,0812.2,5.00,0.00,22.3,21.4,00.0,31.3,23.9,15.5,0000.0,0000.66,0000.30,0000.15
2021-12-09 04:27:00,,0812.3,5.01,0.00,22.3,21.4,00.0,31.3,23.9,15.5,0000.0,0000.85,0000.34,0000.16
2021-12-09 04:28:00,,0812.3,5.00,0.00,22.3,21.4,00.0,31.3,23.9,15.5,0000.0,0000.98,0000.34,0000.16
2021-12-09 04:29:00,,0812.1,5.00,0.00,22.3,21.4,00.0,31.3,23.9,15.6,0000.0,0000.96,0000.33,0000.16
2021-12-09 04:30:00,,0812.1,4.99,0.00,22.3,21.4,00.0,31.3,24.0,15.6,0000.0,0000.97,0000.35,0000.17
2021-12-09 04:31:00,,0811.9,5.00,0.00,22.3,21.5,00.0,31.3,24.1,15.7,0000.0,0001.68,0000.35,0000.16
2021-12-09 04:32:00,,0812.0,5.00,0.00,22.3,21.5,00.0,31.3,24.1,15.9,0000.0,0003.16,0000.36,0000.17
2021-12-09 04:33:00,,0811.9,5.01,0.00,22.3,21.4,00.0,31.3,24.0,15.8,0000.0,0003.32,0000.40,0000.17
2021-12-09 04:34:00,,0811.9,4.99,0.00,22.3,21.4,00.0,31.3,24.1,15.7,0000.0,0003.35,0000.41,0000.16
2021-12-09 04:35:00,,0811.8,5.00,0.00,22.3,21.4,00.0,31.3,24.1,15.7,0000.0,0003.32,0000.40,0000.17
2021-12-09 04:36:00,,0811.8,5.01,0.00,22.3,21.4,00.0,31.3,24.1,15.8,0000.0,0003.36,0000.42,0000.17
2021-12-09 04:37:00,,0811.8,5.00,0.00,22.3,21.4,00.0,31.3,24.1,15.8,0000.0,0003.61,0000.47,0000.18
2021-12-09 04:38:00,,0811.8,5.00,0.00,22.3,21.4,00.0,31.3,24.1,15.6,0000.0,0003.54,0000.47,0000.19
2021-12-09 04:39:00,,0811.8,5.00,0.00,22.3,21.3,00.0,31.3,24.0,15.6,0000.0,0003.58,0000.53,0000.20
2021-12-09 04:40:00,,0811.7,5.00,0.00,22.3,21.3,00.0,31.3,24.0,15.6,0000.0,0003.73,0000.56,0000.20
2021-12-09 04:41:00,,0811.7,5.01,0.00,22.2,21.3,00.0,31.3,24.0,15.5,0000.0,0003.80,0000.56,0000.20
2021-12-09 04:42:00,,0811.7,5.00,0.00,22.2,21.3,00.0,31.3,24.0,15.7,0000.0,0002.88,0000.56,0000.21
2021-12-09 04:43:00,,0811.7,5.00,0.00,22.2,21.3,00.0,31.3,24.0,15.8,0000.0,0001.60,0000.56,0000.21
2021-12-09 04:44:00,,0811.7,4.99,0.00,22.2,21.3,00.0,31.3,24.0,15.9,0000.0,0001.61,0000.57,0000.22
2021-12-09 04:45:00,,0811.7,5.00,0.00,22.2,21.3,00.0,31.3,24.0,15.8,0000.0,0001.66,0000.58,0000.22
2021-12-09 04:46:00,,0811.9,5.01,0.00,22.2,21.3,00.0,31.3,23.9,15.7,0000.0,0001.64,0000.57,0000.22
2021-12-09 04:47:00,,0812.0,4.99,0.00,22.2,21.3,00.0,31.2,23.9,15.6,0000.0,0001.55,0000.56,0000.22
2021-12-09 04:48:00,,0812.0,4.99,0.00,22.2,21.3,00.0,31.3,23.9,15.7,0000.0,0001.45,0000.53,0000.22
2021-12-09 04:49:00,,0812.1,5.01,0.00,22.2,21.3,00.0,31.2,24.0,15.7,0000.0,0001.42,0000.51,0000.21
2021-12-09 04:50:00,,0812.0,4.99,0.00,22.2,21.3,00.0,31.2,24.0,15.7,0000.0,0001.27,0000.47,0000.21
2021-12-09 04:51:00,,0812.2,4.99,0.00,22.2,21.3,00.0,31.2,23.9,15.7,0000.0,0001.20,0000.45,0000.20
2021-12-09 04:52:00,,0812.1,5.01,0.00,22.2,21.3,00.0,31.2,23.9,15.7,0000.0,0001.08,0000.42,0000.20
2021-12-09 04:53:00,,0812.1,5.00,0.00,22.2,21.3,00.0,31.2,23.8,15.8,0000.0,0001.48,0000.44,0000.19
2021-12-09 04:54:00,,0812.2,5.01,0.00,22.1,21.3,00.0,31.2,23.8,15.9,0000.0,0001.78,0000.43,0000.19
2021-12-09 04:55:00,,0812.3,4.99,0.00,22.2,21.3,00.0,31.2,23.9,15.9,0000.0,0001.57,0000.36,0000.17
2021-12-09 04:56:00,,0812.4,5.00,0.00,22.2,21.3,00.0,31.2,23.8,15.8,0000.0,0001.50,0000.34,0000.17
2021-12-09 04:57:00,,0812.4,5.00,0.00,22.2,21.3,00.0,31.2,23.8,15.7,0000.0,0001.49,0000.34,0000.17
2021-12-09 04:58:00,,0812.3,5.00,0.00,22.2,21.3,00.0,31.2,23.8,15.7,0000.0,0001.47,0000.32,0000.17
2021-12-09 04:59:00,,0812.3,5.00,0.00,22.2,21.2,00.0,31.2,23.8,15.6,0000.0,0001.36,0000.32,0000.17
